Location: Proctor
(47.8934°N, 114.3048°W)
Time: 20:01:02
(UTC+00:00)

NOAA 18 - Visible Passes

Search period start: 26 June 2022 00:00
Search period end: 06 July 2022 00:00
Orbit: 840 x 859 km, 98.9° (Epoch: 26 June)

Date Brightness Start Highest point End Pass type
(mag) Time Alt. Az. Time Alt. Az. Time Alt. Az.
26 Jun 5.2 04:57:46 12° SSE 05:02:57 80° ENE 05:08:31 10° NNW visible
26 Jun 7.4 06:40:48 10° SW 06:44:16 17° W 06:47:46 10° NW visible
27 Jun 5.4 04:45:34 10° SSE 04:50:56 65° ENE 04:56:26 10° N visible
27 Jun 7.1 06:27:58 10° SW 06:32:04 21° W 06:36:12 10° NW visible
28 Jun 5.6 04:33:38 10° SE 04:38:57 52° ENE 04:44:18 10° N visible
28 Jun 6.8 06:15:21 10° SSW 06:19:53 26° W 06:24:30 10° NW visible
29 Jun 5.9 04:21:49 10° SE 04:26:59 42° ENE 04:32:10 10° N visible
29 Jun 6.5 06:03:10 12° SSW 06:07:44 33° W 06:12:42 10° NNW visible
30 Jun 6.2 05:50:58 13° SSW 05:55:36 41° W 06:00:50 10° NNW visible
01 Jul 5.9 05:38:46 13° S 05:43:30 51° W 05:48:54 10° NNW visible
02 Jul 5.5 05:26:35 13° S 05:31:24 63° WSW 05:36:56 10° NNW visible
03 Jul 5.3 05:14:24 13° S 05:19:20 79° WSW 05:24:55 10° NNW visible
03 Jul 7.6 06:58:44 10° WSW 07:00:54 12° W 07:03:05 10° WNW visible
04 Jul 5.2 05:02:13 12° SSE 05:07:17 85° ENE 05:12:52 10° NNW visible
04 Jul 7.4 06:45:26 10° SW 06:48:40 16° W 06:51:56 10° NW visible
05 Jul 5.3 04:50:02 11° SSE 04:55:16 69° ENE 05:00:48 10° N visible
05 Jul 7.2 06:32:31 10° SW 06:36:27 20° W 06:40:26 10° NW visible
